TimeCST,TemperatureF,Dew PointF,Humidity,Sea Level PressureIn,VisibilityMPH,Wind Direction,Wind SpeedMPH,Gust SpeedMPH,PrecipitationIn,Events,Conditions,WindDirDegrees,DateUTC
12:15 AM,32.0,24.8,75,30.02,10.0,Calm,Calm,-,N/A,,Mostly Cloudy,0,2012-11-30 06:15:00
12:35 AM,33.8,24.8,70,30.02,10.0,Calm,Calm,-,N/A,,Mostly Cloudy,0,2012-11-30 06:35:00
12:55 AM,32.0,24.8,75,30.02,10.0,Calm,Calm,-,N/A,,Scattered Clouds,0,2012-11-30 06:55:00
1:15 AM,32.0,24.8,75,30.03,10.0,Calm,Calm,-,N/A,,Clear,0,2012-11-30 07:15:00
1:34 AM,32.0,24.8,75,30.03,10.0,Calm,Calm,-,N/A,,Clear,0,2012-11-30 07:34:00
1:55 AM,32.0,24.8,75,30.02,10.0,NE,6.9,-,N/A,,Clear,40,2012-11-30 07:55:00
2:15 AM,30.2,24.8,80,30.03,10.0,Calm,Calm,-,N/A,,Clear,0,2012-11-30 08:15:00
2:35 AM,30.2,23.0,75,30.03,10.0,Calm,Calm,-,N/A,,Clear,0,2012-11-30 08:35:00
2:55 AM,30.2,23.0,75,30.04,10.0,Calm,Calm,-,N/A,,Clear,0,2012-11-30 08:55:00
3:15 AM,28.4,23.0,80,30.04,10.0,Calm,Calm,-,N/A,,Clear,0,2012-11-30 09:15:00
3:35 AM,28.4,21.2,74,30.05,10.0,Calm,Calm,-,N/A,,Clear,0,2012-11-30 09:35:00
3:55 AM,26.6,21.2,80,30.04,10.0,North,4.6,-,N/A,,Clear,350,2012-11-30 09:55:00
4:15 AM,24.8,21.2,86,30.05,7.0,Calm,Calm,-,N/A,,Clear,0,2012-11-30 10:15:00
4:35 AM,23.0,19.4,86,30.07,-9999.0,Calm,Calm,-,N/A,,Clear,0,2012-11-30 10:35:00
4:55 AM,26.6,21.2,80,30.07,7.0,Calm,Calm,-,N/A,,Clear,0,2012-11-30 10:55:00
5:15 AM,26.6,21.2,80,30.07,7.0,Calm,Calm,-,N/A,,Clear,0,2012-11-30 11:15:00
5:35 AM,26.6,21.2,80,30.07,7.0,Calm,Calm,-,N/A,,Clear,0,2012-11-30 11:35:00
5:55 AM,24.8,19.4,80,30.08,7.0,Calm,Calm,-,N/A,,Clear,0,2012-11-30 11:55:00
6:15 AM,24.8,19.4,80,30.08,7.0,Calm,Calm,-,N/A,,Clear,0,2012-11-30 12:15:00
6:35 AM,23.0,19.4,86,30.09,7.0,Calm,Calm,-,N/A,,Clear,0,2012-11-30 12:35:00
6:55 AM,23.0,19.4,86,30.09,7.0,Calm,Calm,-,N/A,,Clear,0,2012-11-30 12:55:00
7:15 AM,23.0,19.4,86,30.09,5.0,Calm,Calm,-,N/A,,Clear,0,2012-11-30 13:15:00
7:35 AM,23.0,19.4,86,30.09,5.0,Calm,Calm,-,N/A,,Clear,0,2012-11-30 13:35:00
7:55 AM,21.2,19.4,93,30.11,4.0,Calm,Calm,-,N/A,,Clear,0,2012-11-30 13:55:00
8:15 AM,21.2,19.4,93,30.11,4.0,Calm,Calm,-,N/A,,Clear,0,2012-11-30 14:15:00
8:35 AM,24.8,19.4,80,30.12,4.0,Calm,Calm,-,N/A,,Clear,0,2012-11-30 14:35:00
8:55 AM,26.6,21.2,80,30.12,4.0,Calm,Calm,-,N/A,,Clear,0,2012-11-30 14:55:00
9:15 AM,26.6,23.0,86,30.13,4.0,Calm,Calm,-,N/A,,Mostly Cloudy,0,2012-11-30 15:15:00
9:35 AM,28.4,26.6,93,30.13,4.0,Calm,Calm,-,N/A,,Overcast,0,2012-11-30 15:35:00
9:55 AM,30.2,26.6,86,30.12,3.0,Calm,Calm,-,N/A,,Overcast,0,2012-11-30 15:55:00
10:15 AM,32.0,28.4,87,30.13,3.0,ENE,11.5,-,N/A,,Overcast,70,2012-11-30 16:15:00
10:35 AM,33.8,28.4,81,30.14,3.0,East,4.6,-,N/A,,Overcast,90,2012-11-30 16:35:00
10:55 AM,33.8,28.4,81,30.14,4.0,Calm,Calm,-,N/A,,Haze,0,2012-11-30 16:55:00
11:15 AM,35.6,30.2,81,30.14,4.0,Calm,Calm,-,N/A,,Haze,0,2012-11-30 17:15:00
11:35 AM,35.6,30.2,81,30.13,4.0,Calm,Calm,-,N/A,,Haze,0,2012-11-30 17:35:00
11:55 AM,35.6,30.2,81,30.12,4.0,Calm,Calm,-,N/A,,Haze,0,2012-11-30 17:55:00
12:15 PM,35.6,30.2,81,30.11,4.0,Calm,Calm,-,N/A,,Haze,0,2012-11-30 18:15:00
12:35 PM,35.6,30.2,81,30.12,4.0,Calm,Calm,-,N/A,,Haze,0,2012-11-30 18:35:00
12:55 PM,37.4,30.2,75,30.11,4.0,Calm,Calm,-,N/A,,Haze,0,2012-11-30 18:55:00
1:15 PM,37.4,30.2,75,30.11,5.0,Calm,Calm,-,N/A,,Haze,0,2012-11-30 19:15:00
1:35 PM,37.4,30.2,75,30.10,5.0,Calm,Calm,-,N/A,,Haze,0,2012-11-30 19:35:00
1:55 PM,37.4,30.2,75,30.08,5.0,Calm,Calm,-,N/A,,Haze,0,2012-11-30 19:55:00
2:15 PM,37.4,30.2,75,30.08,5.0,Calm,Calm,-,N/A,,Haze,0,2012-11-30 20:15:00
2:35 PM,39.2,30.2,70,30.09,5.0,Calm,Calm,-,N/A,,Haze,0,2012-11-30 20:35:00
2:55 PM,39.2,30.2,70,30.07,5.0,Calm,Calm,-,N/A,,Haze,0,2012-11-30 20:55:00
3:15 PM,39.2,30.2,70,30.08,5.0,Calm,Calm,-,N/A,,Haze,0,2012-11-30 21:15:00
3:35 PM,39.2,30.2,70,30.08,5.0,East,3.5,-,N/A,,Haze,80,2012-11-30 21:35:00
3:55 PM,39.2,30.2,70,30.08,5.0,Calm,Calm,-,N/A,,Haze,0,2012-11-30 21:55:00
4:15 PM,37.4,30.2,75,30.09,5.0,Calm,Calm,-,N/A,,Haze,0,2012-11-30 22:15:00
4:35 PM,37.4,30.2,75,30.08,5.0,Calm,Calm,-,N/A,,Haze,0,2012-11-30 22:35:00
4:55 PM,35.6,30.2,81,30.08,7.0,Calm,Calm,-,N/A,,Clear,0,2012-11-30 22:55:00
5:16 PM,33.8,28.4,81,30.07,5.0,Calm,Calm,-,N/A,,Haze,0,2012-11-30 23:16:00
5:35 PM,32.0,28.4,87,30.08,5.0,Calm,Calm,-,N/A,,Clear,0,2012-11-30 23:35:00
5:55 PM,32.0,28.4,87,30.08,5.0,Calm,Calm,-,N/A,,Clear,0,2012-11-30 23:55:00
6:15 PM,32.0,28.4,87,30.08,5.0,East,6.9,-,N/A,,Clear,90,2012-12-01 00:15:00
6:35 PM,32.0,28.4,87,30.07,5.0,East,3.5,-,N/A,,Clear,100,2012-12-01 00:35:00
6:55 PM,30.2,28.4,93,30.07,4.0,ESE,11.5,-,N/A,,Clear,110,2012-12-01 00:55:00
7:15 PM,30.2,28.4,93,30.06,4.0,ESE,12.7,-,N/A,,Clear,110,2012-12-01 01:15:00
7:35 PM,30.2,28.4,93,30.04,4.0,ESE,11.5,-,N/A,,Clear,110,2012-12-01 01:35:00
7:55 PM,30.2,28.4,93,30.03,3.0,ESE,13.8,-,N/A,,Clear,110,2012-12-01 01:55:00
8:15 PM,32.0,28.4,87,30.04,3.0,ESE,13.8,-,N/A,,Mostly Cloudy,110,2012-12-01 02:15:00
8:35 PM,32.0,30.2,93,30.03,3.0,ESE,12.7,-,N/A,,Overcast,120,2012-12-01 02:35:00
8:55 PM,33.8,30.2,87,30.04,3.0,ESE,11.5,-,N/A,,Overcast,120,2012-12-01 02:55:00
9:15 PM,33.8,30.2,87,30.05,3.0,SE,8.1,-,N/A,,Overcast,130,2012-12-01 03:15:00
9:35 PM,33.8,30.2,87,30.04,3.0,SE,15.0,-,N/A,,Overcast,130,2012-12-01 03:35:00
9:55 PM,33.8,30.2,87,30.03,2.5,ESE,12.7,-,N/A,,Overcast,120,2012-12-01 03:55:00
10:16 PM,33.8,30.2,87,30.02,2.5,ESE,13.8,-,N/A,,Overcast,120,2012-12-01 04:16:00
10:35 PM,33.8,30.2,87,30.02,2.5,ESE,13.8,-,N/A,,Overcast,120,2012-12-01 04:35:00
11:15 PM,33.8,30.2,87,30.03,2.5,SE,11.5,-,N/A,,Overcast,140,2012-12-01 05:15:00
11:35 PM,33.8,30.2,87,30.02,2.5,SE,10.4,-,N/A,,Overcast,130,2012-12-01 05:35:00
11:55 PM,33.8,30.2,87,30.01,2.5,SE,11.5,-,N/A,,Overcast,130,2012-12-01 05:55:00